Information on these data can be found in provided Readme document
Contact Info: Zachary Fasnacht (zachary.fasnacht@ssaihq.com); Nickolay Krotkov (nickolay.a.krotkov@nasa.gov); Lok Lamsal (lok.lamsal@nasa.gov)

FillValue: -999.
ScaleFactor: 1e15
Units: molecules/cm^2

Date(yyyy-mm-dd),City,Country,LonCenter,LatCenter,BoundingCoordinates,Median,Q1,Q3,Mean,Baseline_Median,Baseline_Q1,Baseline_Q3,Baseline_Mean,NumGoodSamples,NumTotalSamples
2015-01-01,Tegucigalpa,Honduras,-87.1715,14.065,[-87.6715 13.565 -86.6715 14.565],0.67,0.061,1.196,0.666,0.672,0.206,1.183,0.724,151.0,515.0
2015-01-02,Tegucigalpa,Honduras,-87.1715,14.065,[-87.6715 13.565 -86.6715 14.565],0.67,0.061,1.196,0.663,0.685,0.205,1.215,0.744,142.0,522.0
2015-01-03,Tegucigalpa,Honduras,-87.1715,14.065,[-87.6715 13.565 -86.6715 14.565],0.67,0.081,1.196,0.67,0.665,0.179,1.138,0.727,147.0,502.0
2015-01-04,Tegucigalpa,Honduras,-87.1715,14.065,[-87.6715 13.565 -86.6715 14.565],0.67,0.081,1.196,0.67,0.651,0.188,1.133,0.715,147.0,528.0
2015-01-05,Tegucigalpa,Honduras,-87.1715,14.065,[-87.6715 13.565 -86.6715 14.565],0.67,0.081,1.196,0.67,0.702,0.131,1.194,0.729,147.0,494.0
2015-01-06,Tegucigalpa,Honduras,-87.1715,14.065,[-87.6715 13.565 -86.6715 14.565],0.51,0.045,1.196,0.612,0.665,0.137,1.164,0.715,127.0,526.0
2015-01-07,Tegucigalpa,Honduras,-87.1715,14.065,[-87.6715 13.565 -86.6715 14.565],0.51,0.053,1.172,0.613,0.651,0.143,1.164,0.708,92.0,504.0
2015-01-08,Tegucigalpa,Honduras,-87.1715,14.065,[-87.6715 13.565 -86.6715 14.565],0.42,0.045,1.113,0.584,0.66,0.147,1.171,0.716,92.0,522.0
2015-01-09,Tegucigalpa,Honduras,-87.1715,14.065,[-87.6715 13.565 -86.6715 14.565],0.42,0.045,1.004,0.574,0.611,0.071,1.134,0.67,80.0,489.0
2015-01-10,Tegucigalpa,Honduras,-87.1715,14.065,[-87.6715 13.565 -86.6715 14.565],0.42,0.017,1.004,0.538,0.562,0.054,1.105,0.622,88.0,482.0
2015-01-11,Tegucigalpa,Honduras,-87.1715,14.065,[-87.6715 13.565 -86.6715 14.565],0.42,0.045,1.004,0.533,0.57,0.086,1.105,0.625,83.0,497.0
2015-01-12,Tegucigalpa,Honduras,-87.1715,14.065,[-87.6715 13.565 -86.6715 14.565],0.42,-0.058,1.004,0.496,0.531,0.057,1.06,0.595,103.0,467.0
2015-01-13,Tegucigalpa,Honduras,-87.1715,14.065,[-87.6715 13.565 -86.6715 14.565],0.364,-0.243,1.113,0.466,0.508,0.058,1.109,0.607,77.0,488.0
2015-01-14,Tegucigalpa,Honduras,-87.1715,14.065,[-87.6715 13.565 -86.6715 14.565],0.201,-0.268,0.897,0.317,0.463,-0.006,1.031,0.547,91.0,469.0
2015-01-15,Tegucigalpa,Honduras,-87.1715,14.065,[-87.6715 13.565 -86.6715 14.565],0.145,-0.326,0.753,0.216,0.485,0.044,1.097,0.575,94.0,499.0
2015-01-16,Tegucigalpa,Honduras,-87.1715,14.065,[-87.6715 13.565 -86.6715 14.565],0.364,-0.253,0.897,0.368,0.481,0.047,1.081,0.588,84.0,486.0
2015-01-17,Tegucigalpa,Honduras,-87.1715,14.065,[-87.6715 13.565 -86.6715 14.565],0.364,-0.243,0.921,0.415,0.468,0.011,1.054,0.564,107.0,488.0
2015-01-18,Tegucigalpa,Honduras,-87.1715,14.065,[-87.6715 13.565 -86.6715 14.565],0.364,-0.268,0.897,0.392,0.501,0.025,1.114,0.58,102.0,495.0
2015-01-19,Tegucigalpa,Honduras,-87.1715,14.065,[-87.6715 13.565 -86.6715 14.565],0.364,-0.253,0.921,0.41,0.499,0.018,1.038,0.56,108.0,472.0
2015-01-20,Tegucigalpa,Honduras,-87.1715,14.065,[-87.6715 13.565 -86.6715 14.565],0.364,-0.253,0.921,0.41,0.494,0.019,1.001,0.55,108.0,500.0
2015-01-21,Tegucigalpa,Honduras,-87.1715,14.065,[-87.6715 13.565 -86.6715 14.565],0.484,-0.163,0.921,0.46,0.525,0.016,1.046,0.567,123.0,467.0
2015-01-22,Tegucigalpa,Honduras,-87.1715,14.065,[-87.6715 13.565 -86.6715 14.565],0.484,-0.163,0.921,0.46,0.528,0.028,1.082,0.585,123.0,499.0
2015-01-23,Tegucigalpa,Honduras,-87.1715,14.065,[-87.6715 13.565 -86.6715 14.565],0.499,-0.243,1.008,0.454,0.51,-0.008,1.054,0.572,123.0,477.0
2015-01-24,Tegucigalpa,Honduras,-87.1715,14.065,[-87.6715 13.565 -86.6715 14.565],0.484,-0.193,1.019,0.468,0.502,0.029,1.062,0.597,135.0,519.0
2015-01-25,Tegucigalpa,Honduras,-87.1715,14.065,[-87.6715 13.565 -86.6715 14.565],0.499,-0.243,1.019,0.49,0.537,0.028,1.09,0.618,128.0,509.0
2015-01-26,Tegucigalpa,Honduras,-87.1715,14.065,[-87.6715 13.565 -86.6715 14.565],0.484,-0.243,0.921,0.485,0.53,0.022,1.04,0.6,149.0,505.0
2015-01-27,Tegucigalpa,Honduras,-87.1715,14.065,[-87.6715 13.565 -86.6715 14.565],0.499,-0.139,0.921,0.51,0.547,0.058,1.05,0.613,129.0,524.0
2015-01-28,Tegucigalpa,Honduras,-87.1715,14.065,[-87.6715 13.565 -86.6715 14.565],0.427,-0.238,0.921,0.44,0.528,0.01,1.05,0.59,149.0,492.0
2015-01-29,Tegucigalpa,Honduras,-87.1715,14.065,[-87.6715 13.565 -86.6715 14.565],0.512,-0.037,1.082,0.543,0.554,0.071,1.083,0.618,134.0,516.0
2015-01-30,Tegucigalpa,Honduras,-87.1715,14.065,[-87.6715 13.565 -86.6715 14.565],0.471,-0.153,1.082,0.506,0.499,0.021,1.036,0.575,123.0,493.0
2015-01-31,Tegucigalpa,Honduras,-87.1715,14.065,[-87.6715 13.565 -86.6715 14.565],0.427,-0.238,1.033,0.463,0.51,-0.017,1.011,0.568,112.0,520.0
2015-02-01,Tegucigalpa,Honduras,-87.1715,14.065,[-87.6715 13.565 -86.6715 14.565],0.439,-0.259,0.931,0.425,0.517,0.001,1.005,0.583,100.0,509.0
2015-02-02,Tegucigalpa,Honduras,-87.1715,14.065,[-87.6715 13.565 -86.6715 14.565],0.512,-0.238,1.122,0.477,0.484,-0.098,1.001,0.535,120.0,511.0
2015-02-03,Tegucigalpa,Honduras,-87.1715,14.065,[-87.6715 13.565 -86.6715 14.565],0.512,-0.259,1.039,0.462,0.513,-0.101,1.058,0.564,114.0,522.0
2015-02-04,Tegucigalpa,Honduras,-87.1715,14.065,[-87.6715 13.565 -86.6715 14.565],0.551,-0.201,0.987,0.507,0.529,-0.1,1.045,0.547,132.0,502.0
2015-02-05,Tegucigalpa,Honduras,-87.1715,14.065,[-87.6715 13.565 -86.6715 14.565],0.427,-0.238,0.934,0.463,0.482,-0.106,0.993,0.546,117.0,531.0
2015-02-06,Tegucigalpa,Honduras,-87.1715,14.065,[-87.6715 13.565 -86.6715 14.565],0.439,-0.259,0.911,0.457,0.442,-0.147,0.986,0.501,128.0,498.0
2015-02-07,Tegucigalpa,Honduras,-87.1715,14.065,[-87.6715 13.565 -86.6715 14.565],0.476,-0.238,0.911,0.471,0.413,-0.174,0.959,0.479,124.0,529.0
2015-02-08,Tegucigalpa,Honduras,-87.1715,14.065,[-87.6715 13.565 -86.6715 14.565],0.395,-0.065,0.887,0.459,0.411,-0.127,0.971,0.481,132.0,507.0
2015-02-09,Tegucigalpa,Honduras,-87.1715,14.065,[-87.6715 13.565 -86.6715 14.565],0.395,-0.224,0.911,0.461,0.405,-0.126,0.969,0.485,166.0,525.0
2015-02-10,Tegucigalpa,Honduras,-87.1715,14.065,[-87.6715 13.565 -86.6715 14.565],0.406,-0.224,0.912,0.464,0.434,-0.139,0.918,0.49,145.0,491.0
2015-02-11,Tegucigalpa,Honduras,-87.1715,14.065,[-87.6715 13.565 -86.6715 14.565],0.439,-0.238,0.911,0.442,0.431,-0.145,0.946,0.48,155.0,484.0
2015-02-12,Tegucigalpa,Honduras,-87.1715,14.065,[-87.6715 13.565 -86.6715 14.565],0.63,-0.015,0.938,0.522,0.487,-0.094,0.981,0.522,135.0,503.0
2015-02-13,Tegucigalpa,Honduras,-87.1715,14.065,[-87.6715 13.565 -86.6715 14.565],0.646,0.047,1.077,0.612,0.508,-0.057,1.036,0.559,142.0,472.0
2015-02-14,Tegucigalpa,Honduras,-87.1715,14.065,[-87.6715 13.565 -86.6715 14.565],0.646,0.069,1.163,0.642,0.469,-0.073,1.029,0.562,140.0,497.0
2015-02-15,Tegucigalpa,Honduras,-87.1715,14.065,[-87.6715 13.565 -86.6715 14.565],0.489,0.044,0.906,0.517,0.486,-0.061,1.007,0.553,155.0,479.0
2015-02-16,Tegucigalpa,Honduras,-87.1715,14.065,[-87.6715 13.565 -86.6715 14.565],0.493,0.044,0.906,0.56,0.516,-0.083,1.038,0.565,168.0,504.0
2015-02-17,Tegucigalpa,Honduras,-87.1715,14.065,[-87.6715 13.565 -86.6715 14.565],0.489,0.044,0.875,0.514,0.538,-0.037,1.056,0.608,165.0,491.0
2015-02-18,Tegucigalpa,Honduras,-87.1715,14.065,[-87.6715 13.565 -86.6715 14.565],0.489,0.044,0.887,0.527,0.515,-0.044,1.086,0.602,183.0,492.0
2015-02-19,Tegucigalpa,Honduras,-87.1715,14.065,[-87.6715 13.565 -86.6715 14.565],0.475,0.044,0.909,0.533,0.561,-0.013,1.145,0.646,190.0,498.0
2015-02-20,Tegucigalpa,Honduras,-87.1715,14.065,[-87.6715 13.565 -86.6715 14.565],0.489,0.044,0.957,0.544,0.542,-0.004,1.13,0.629,210.0,475.0
2015-02-21,Tegucigalpa,Honduras,-87.1715,14.065,[-87.6715 13.565 -86.6715 14.565],0.489,0.044,0.996,0.559,0.56,-0.001,1.152,0.653,199.0,501.0
2015-02-22,Tegucigalpa,Honduras,-87.1715,14.065,[-87.6715 13.565 -86.6715 14.565],0.489,0.044,0.875,0.538,0.562,0.037,1.149,0.674,209.0,469.0
2015-02-23,Tegucigalpa,Honduras,-87.1715,14.065,[-87.6715 13.565 -86.6715 14.565],0.493,0.038,0.932,0.545,0.533,0.03,1.145,0.65,189.0,502.0
2015-02-24,Tegucigalpa,Honduras,-87.1715,14.065,[-87.6715 13.565 -86.6715 14.565],0.493,0.044,0.835,0.544,0.543,0.053,1.144,0.647,160.0,481.0
2015-02-25,Tegucigalpa,Honduras,-87.1715,14.065,[-87.6715 13.565 -86.6715 14.565],0.493,0.044,0.875,0.55,0.568,0.083,1.169,0.679,179.0,523.0
2015-02-26,Tegucigalpa,Honduras,-87.1715,14.065,[-87.6715 13.565 -86.6715 14.565],0.496,0.049,0.932,0.585,0.555,0.093,1.154,0.678,172.0,514.0
2015-02-27,Tegucigalpa,Honduras,-87.1715,14.065,[-87.6715 13.565 -86.6715 14.565],0.499,0.049,0.909,0.576,0.554,0.105,1.125,0.666,196.0,505.0
2015-02-28,Tegucigalpa,Honduras,-87.1715,14.065,[-87.6715 13.565 -86.6715 14.565],0.493,0.044,0.835,0.512,0.546,0.085,1.059,0.623,208.0,523.0
2015-03-01,Tegucigalpa,Honduras,-87.1715,14.065,[-87.6715 13.565 -86.6715 14.565],0.496,0.044,0.875,0.525,0.56,0.1,1.074,0.633,217.0,493.0
2015-03-02,Tegucigalpa,Honduras,-87.1715,14.065,[-87.6715 13.565 -86.6715 14.565],0.552,0.099,0.987,0.617,0.587,0.123,1.08,0.643,194.0,512.0
2015-03-03,Tegucigalpa,Honduras,-87.1715,14.065,[-87.6715 13.565 -86.6715 14.565],0.51,-0.058,0.807,0.453,0.576,0.091,1.04,0.607,192.0,491.0
2015-03-04,Tegucigalpa,Honduras,-87.1715,14.065,[-87.6715 13.565 -86.6715 14.565],0.504,-0.058,0.807,0.454,0.535,0.072,1.01,0.586,188.0,518.0
2015-03-05,Tegucigalpa,Honduras,-87.1715,14.065,[-87.6715 13.565 -86.6715 14.565],0.513,-0.058,0.835,0.47,0.539,0.071,1.0,0.584,188.0,505.0
2015-03-06,Tegucigalpa,Honduras,-87.1715,14.065,[-87.6715 13.565 -86.6715 14.565],0.499,-0.144,0.804,0.399,0.516,0.036,0.971,0.532,190.0,507.0
2015-03-07,Tegucigalpa,Honduras,-87.1715,14.065,[-87.6715 13.565 -86.6715 14.565],0.496,-0.156,0.781,0.359,0.519,0.046,0.978,0.523,198.0,516.0
2015-03-08,Tegucigalpa,Honduras,-87.1715,14.065,[-87.6715 13.565 -86.6715 14.565],0.475,-0.144,0.75,0.361,0.506,0.034,0.917,0.508,216.0,497.0
2015-03-09,Tegucigalpa,Honduras,-87.1715,14.065,[-87.6715 13.565 -86.6715 14.565],0.46,-0.171,0.786,0.359,0.496,0.024,0.927,0.496,206.0,524.0
2015-03-10,Tegucigalpa,Honduras,-87.1715,14.065,[-87.6715 13.565 -86.6715 14.565],0.46,-0.165,0.783,0.358,0.531,0.046,0.964,0.531,208.0,490.0
2015-03-11,Tegucigalpa,Honduras,-87.1715,14.065,[-87.6715 13.565 -86.6715 14.565],0.46,-0.171,0.786,0.357,0.511,0.012,0.949,0.507,202.0,522.0
2015-03-12,Tegucigalpa,Honduras,-87.1715,14.065,[-87.6715 13.565 -86.6715 14.565],0.46,-0.171,0.786,0.352,0.484,0.008,0.933,0.485,186.0,500.0
2015-03-13,Tegucigalpa,Honduras,-87.1715,14.065,[-87.6715 13.565 -86.6715 14.565],0.386,-0.171,0.781,0.336,0.454,-0.008,0.923,0.47,214.0,519.0
2015-03-14,Tegucigalpa,Honduras,-87.1715,14.065,[-87.6715 13.565 -86.6715 14.565],0.341,-0.171,0.759,0.321,0.441,-0.028,0.89,0.453,190.0,488.0
2015-03-15,Tegucigalpa,Honduras,-87.1715,14.065,[-87.6715 13.565 -86.6715 14.565],0.375,-0.156,0.783,0.343,0.485,0.017,0.949,0.506,190.0,480.0
2015-03-16,Tegucigalpa,Honduras,-87.1715,14.065,[-87.6715 13.565 -86.6715 14.565],0.34,-0.171,0.759,0.327,0.459,-0.003,0.925,0.484,190.0,498.0
2015-03-17,Tegucigalpa,Honduras,-87.1715,14.065,[-87.6715 13.565 -86.6715 14.565],0.341,-0.171,0.763,0.333,0.45,0.008,0.939,0.498,193.0,470.0
2015-03-18,Tegucigalpa,Honduras,-87.1715,14.065,[-87.6715 13.565 -86.6715 14.565],0.375,0.013,0.909,0.424,0.461,0.037,0.942,0.518,171.0,493.0
2015-03-19,Tegucigalpa,Honduras,-87.1715,14.065,[-87.6715 13.565 -86.6715 14.565],0.576,0.225,0.89,0.54,0.492,0.096,0.957,0.54,183.0,475.0
2015-03-20,Tegucigalpa,Honduras,-87.1715,14.065,[-87.6715 13.565 -86.6715 14.565],0.574,0.235,0.858,0.541,0.492,0.095,0.963,0.54,195.0,502.0
2015-03-21,Tegucigalpa,Honduras,-87.1715,14.065,[-87.6715 13.565 -86.6715 14.565],0.587,0.289,0.909,0.605,0.534,0.11,1.003,0.574,169.0,488.0
2015-03-22,Tegucigalpa,Honduras,-87.1715,14.065,[-87.6715 13.565 -86.6715 14.565],0.6,0.339,0.983,0.674,0.524,0.127,1.032,0.586,158.0,491.0
2015-03-23,Tegucigalpa,Honduras,-87.1715,14.065,[-87.6715 13.565 -86.6715 14.565],0.623,0.347,1.084,0.717,0.569,0.17,1.089,0.628,142.0,494.0
2015-03-24,Tegucigalpa,Honduras,-87.1715,14.065,[-87.6715 13.565 -86.6715 14.565],0.6,0.341,1.084,0.698,0.59,0.182,1.084,0.647,148.0,469.0
2015-03-25,Tegucigalpa,Honduras,-87.1715,14.065,[-87.6715 13.565 -86.6715 14.565],0.618,0.342,1.084,0.707,0.605,0.152,1.079,0.64,146.0,497.0
2015-03-26,Tegucigalpa,Honduras,-87.1715,14.065,[-87.6715 13.565 -86.6715 14.565],0.6,0.3,0.987,0.654,0.622,0.19,1.052,0.659,155.0,464.0
2015-03-27,Tegucigalpa,Honduras,-87.1715,14.065,[-87.6715 13.565 -86.6715 14.565],0.587,0.294,0.979,0.646,0.59,0.201,1.064,0.655,152.0,497.0
2015-03-28,Tegucigalpa,Honduras,-87.1715,14.065,[-87.6715 13.565 -86.6715 14.565],0.6,0.328,0.916,0.678,0.625,0.242,1.102,0.681,122.0,474.0
2015-03-29,Tegucigalpa,Honduras,-87.1715,14.065,[-87.6715 13.565 -86.6715 14.565],0.6,0.325,0.916,0.669,0.634,0.233,1.09,0.677,143.0,517.0
2015-03-30,Tegucigalpa,Honduras,-87.1715,14.065,[-87.6715 13.565 -86.6715 14.565],0.587,0.328,0.891,0.651,0.578,0.213,1.034,0.643,137.0,514.0
2015-03-31,Tegucigalpa,Honduras,-87.1715,14.065,[-87.6715 13.565 -86.6715 14.565],0.587,0.325,0.891,0.644,0.62,0.277,1.073,0.672,138.0,505.0
2015-04-01,Tegucigalpa,Honduras,-87.1715,14.065,[-87.6715 13.565 -86.6715 14.565],0.587,0.325,0.891,0.635,0.605,0.269,1.052,0.657,146.0,523.0
2015-04-02,Tegucigalpa,Honduras,-87.1715,14.065,[-87.6715 13.565 -86.6715 14.565],0.556,0.248,0.856,0.589,0.609,0.261,1.05,0.658,165.0,495.0
2015-04-03,Tegucigalpa,Honduras,-87.1715,14.065,[-87.6715 13.565 -86.6715 14.565],0.401,-0.033,0.837,0.504,0.642,0.238,1.122,0.679,140.0,515.0
2015-04-04,Tegucigalpa,Honduras,-87.1715,14.065,[-87.6715 13.565 -86.6715 14.565],0.538,0.232,0.894,0.564,0.68,0.283,1.145,0.705,137.0,497.0
2015-04-05,Tegucigalpa,Honduras,-87.1715,14.065,[-87.6715 13.565 -86.6715 14.565],0.563,0.232,0.99,0.603,0.661,0.273,1.157,0.702,174.0,524.0
2015-04-06,Tegucigalpa,Honduras,-87.1715,14.065,[-87.6715 13.565 -86.6715 14.565],0.556,0.232,0.99,0.588,0.666,0.261,1.148,0.697,164.0,507.0
2015-04-07,Tegucigalpa,Honduras,-87.1715,14.065,[-87.6715 13.565 -86.6715 14.565],0.605,0.235,1.043,0.64,0.654,0.26,1.118,0.679,190.0,515.0
2015-04-08,Tegucigalpa,Honduras,-87.1715,14.065,[-87.6715 13.565 -86.6715 14.565],0.631,0.283,1.043,0.668,0.649,0.284,1.094,0.687,201.0,525.0
2015-04-09,Tegucigalpa,Honduras,-87.1715,14.065,[-87.6715 13.565 -86.6715 14.565],0.633,0.283,1.055,0.678,0.632,0.277,1.092,0.675,221.0,500.0
2015-04-10,Tegucigalpa,Honduras,-87.1715,14.065,[-87.6715 13.565 -86.6715 14.565],0.667,0.306,1.06,0.716,0.65,0.273,1.088,0.691,212.0,529.0
2015-04-11,Tegucigalpa,Honduras,-87.1715,14.065,[-87.6715 13.565 -86.6715 14.565],0.704,0.332,1.06,0.732,0.693,0.273,1.112,0.723,226.0,494.0
2015-04-12,Tegucigalpa,Honduras,-87.1715,14.065,[-87.6715 13.565 -86.6715 14.565],0.697,0.332,1.06,0.731,0.692,0.281,1.108,0.73,225.0,527.0
2015-04-13,Tegucigalpa,Honduras,-87.1715,14.065,[-87.6715 13.565 -86.6715 14.565],0.704,0.397,1.06,0.729,0.72,0.369,1.14,0.748,217.0,504.0
2015-04-14,Tegucigalpa,Honduras,-87.1715,14.065,[-87.6715 13.565 -86.6715 14.565],0.74,0.444,1.106,0.799,0.734,0.362,1.157,0.77,236.0,518.0
2015-04-15,Tegucigalpa,Honduras,-87.1715,14.065,[-87.6715 13.565 -86.6715 14.565],0.752,0.444,1.1,0.806,0.737,0.323,1.15,0.765,226.0,487.0
2015-04-16,Tegucigalpa,Honduras,-87.1715,14.065,[-87.6715 13.565 -86.6715 14.565],0.8,0.473,1.174,0.87,0.766,0.348,1.216,0.818,241.0,477.0
2015-04-17,Tegucigalpa,Honduras,-87.1715,14.065,[-87.6715 13.565 -86.6715 14.565],0.884,0.53,1.313,0.986,0.805,0.367,1.288,0.868,243.0,496.0
2015-04-18,Tegucigalpa,Honduras,-87.1715,14.065,[-87.6715 13.565 -86.6715 14.565],0.901,0.595,1.357,1.006,0.812,0.396,1.309,0.886,263.0,466.0
2015-04-19,Tegucigalpa,Honduras,-87.1715,14.065,[-87.6715 13.565 -86.6715 14.565],0.987,0.635,1.454,1.086,0.83,0.381,1.316,0.888,236.0,485.0
2015-04-20,Tegucigalpa,Honduras,-87.1715,14.065,[-87.6715 13.565 -86.6715 14.565],0.901,0.491,1.381,0.983,0.834,0.372,1.312,0.886,219.0,465.0
2015-04-21,Tegucigalpa,Honduras,-87.1715,14.065,[-87.6715 13.565 -86.6715 14.565],0.952,0.537,1.388,1.053,0.867,0.4,1.334,0.93,238.0,495.0
2015-04-22,Tegucigalpa,Honduras,-87.1715,14.065,[-87.6715 13.565 -86.6715 14.565],0.905,0.57,1.379,1.044,0.834,0.418,1.327,0.919,218.0,483.0
2015-04-23,Tegucigalpa,Honduras,-87.1715,14.065,[-87.6715 13.565 -86.6715 14.565],0.912,0.533,1.379,1.047,0.831,0.412,1.316,0.922,203.0,487.0
2015-04-24,Tegucigalpa,Honduras,-87.1715,14.065,[-87.6715 13.565 -86.6715 14.565],0.931,0.533,1.381,1.071,0.878,0.436,1.352,0.946,187.0,502.0
2015-04-25,Tegucigalpa,Honduras,-87.1715,14.065,[-87.6715 13.565 -86.6715 14.565],0.931,0.54,1.381,1.069,0.886,0.462,1.33,0.959,190.0,482.0
2015-04-26,Tegucigalpa,Honduras,-87.1715,14.065,[-87.6715 13.565 -86.6715 14.565],1.016,0.6,1.489,1.105,0.901,0.469,1.373,0.962,176.0,510.0
2015-04-27,Tegucigalpa,Honduras,-87.1715,14.065,[-87.6715 13.565 -86.6715 14.565],0.952,0.497,1.484,1.083,0.919,0.462,1.412,0.973,180.0,480.0
2015-04-28,Tegucigalpa,Honduras,-87.1715,14.065,[-87.6715 13.565 -86.6715 14.565],1.016,0.6,1.489,1.134,0.914,0.488,1.367,0.966,167.0,515.0
2015-04-29,Tegucigalpa,Honduras,-87.1715,14.065,[-87.6715 13.565 -86.6715 14.565],0.931,0.497,1.419,1.079,0.896,0.473,1.372,0.967,140.0,493.0
2015-04-30,Tegucigalpa,Honduras,-87.1715,14.065,[-87.6715 13.565 -86.6715 14.565],0.931,0.497,1.417,1.073,0.913,0.47,1.381,0.97,145.0,535.0
2015-05-01,Tegucigalpa,Honduras,-87.1715,14.065,[-87.6715 13.565 -86.6715 14.565],0.877,0.401,1.324,0.984,0.849,0.413,1.264,0.907,121.0,527.0
2015-05-02,Tegucigalpa,Honduras,-87.1715,14.065,[-87.6715 13.565 -86.6715 14.565],0.834,0.277,1.251,0.892,0.796,0.374,1.207,0.851,111.0,519.0
2015-05-03,Tegucigalpa,Honduras,-87.1715,14.065,[-87.6715 13.565 -86.6715 14.565],0.648,0.192,1.181,0.801,0.75,0.339,1.173,0.815,111.0,538.0
2015-05-04,Tegucigalpa,Honduras,-87.1715,14.065,[-87.6715 13.565 -86.6715 14.565],0.715,0.227,1.181,0.816,0.766,0.346,1.16,0.821,122.0,508.0
2015-05-05,Tegucigalpa,Honduras,-87.1715,14.065,[-87.6715 13.565 -86.6715 14.565],0.734,0.262,1.169,0.938,0.774,0.381,1.147,0.833,101.0,531.0
2015-05-06,Tegucigalpa,Honduras,-87.1715,14.065,[-87.6715 13.565 -86.6715 14.565],0.504,0.238,0.789,0.554,0.729,0.363,1.067,0.759,96.0,504.0
2015-05-07,Tegucigalpa,Honduras,-87.1715,14.065,[-87.6715 13.565 -86.6715 14.565],0.497,0.238,0.804,0.53,0.736,0.411,1.096,0.774,120.0,529.0
2015-05-08,Tegucigalpa,Honduras,-87.1715,14.065,[-87.6715 13.565 -86.6715 14.565],0.497,0.238,0.804,0.534,0.719,0.385,1.073,0.755,119.0,520.0
2015-05-09,Tegucigalpa,Honduras,-87.1715,14.065,[-87.6715 13.565 -86.6715 14.565],0.497,0.186,0.804,0.515,0.705,0.363,1.051,0.734,142.0,518.0
2015-05-10,Tegucigalpa,Honduras,-87.1715,14.065,[-87.6715 13.565 -86.6715 14.565],0.497,0.186,0.81,0.519,0.696,0.335,1.053,0.722,144.0,527.0
2015-05-11,Tegucigalpa,Honduras,-87.1715,14.065,[-87.6715 13.565 -86.6715 14.565],0.513,0.26,0.877,0.568,0.672,0.331,1.036,0.716,163.0,508.0
2015-05-12,Tegucigalpa,Honduras,-87.1715,14.065,[-87.6715 13.565 -86.6715 14.565],0.513,0.214,0.88,0.565,0.66,0.29,1.035,0.688,159.0,531.0
2015-05-13,Tegucigalpa,Honduras,-87.1715,14.065,[-87.6715 13.565 -86.6715 14.565],0.516,0.228,0.895,0.571,0.628,0.267,1.017,0.648,176.0,498.0
2015-05-14,Tegucigalpa,Honduras,-87.1715,14.065,[-87.6715 13.565 -86.6715 14.565],0.516,0.228,0.895,0.57,0.592,0.232,0.991,0.618,171.0,532.0
2015-05-15,Tegucigalpa,Honduras,-87.1715,14.065,[-87.6715 13.565 -86.6715 14.565],0.516,0.228,0.895,0.574,0.593,0.243,0.994,0.616,167.0,510.0
2015-05-16,Tegucigalpa,Honduras,-87.1715,14.065,[-87.6715 13.565 -86.6715 14.565],0.525,0.262,0.895,0.594,0.588,0.233,1.012,0.614,166.0,530.0
2015-05-17,Tegucigalpa,Honduras,-87.1715,14.065,[-87.6715 13.565 -86.6715 14.565],0.516,0.262,0.895,0.582,0.581,0.227,1.01,0.612,155.0,496.0
2015-05-18,Tegucigalpa,Honduras,-87.1715,14.065,[-87.6715 13.565 -86.6715 14.565],0.516,0.262,0.88,0.579,0.577,0.227,1.005,0.607,148.0,489.0
2015-05-19,Tegucigalpa,Honduras,-87.1715,14.065,[-87.6715 13.565 -86.6715 14.565],0.516,0.272,0.818,0.555,0.58,0.23,0.989,0.603,160.0,508.0
2015-05-20,Tegucigalpa,Honduras,-87.1715,14.065,[-87.6715 13.565 -86.6715 14.565],0.513,0.242,0.812,0.536,0.539,0.195,0.973,0.571,179.0,479.0
2015-05-21,Tegucigalpa,Honduras,-87.1715,14.065,[-87.6715 13.565 -86.6715 14.565],0.574,0.214,0.924,0.598,0.562,0.182,1.01,0.593,158.0,508.0
2015-05-22,Tegucigalpa,Honduras,-87.1715,14.065,[-87.6715 13.565 -86.6715 14.565],0.576,0.286,0.871,0.581,0.557,0.171,0.986,0.572,139.0,486.0
2015-05-23,Tegucigalpa,Honduras,-87.1715,14.065,[-87.6715 13.565 -86.6715 14.565],0.584,0.273,0.871,0.594,0.549,0.146,0.975,0.566,173.0,510.0
2015-05-24,Tegucigalpa,Honduras,-87.1715,14.065,[-87.6715 13.565 -86.6715 14.565],0.61,0.303,0.88,0.624,0.505,0.112,0.985,0.544,148.0,499.0
2015-05-25,Tegucigalpa,Honduras,-87.1715,14.065,[-87.6715 13.565 -86.6715 14.565],0.584,0.303,0.88,0.622,0.513,0.118,0.992,0.551,153.0,498.0
2015-05-26,Tegucigalpa,Honduras,-87.1715,14.065,[-87.6715 13.565 -86.6715 14.565],0.576,0.273,0.871,0.586,0.519,0.079,0.936,0.519,141.0,504.0
2015-05-27,Tegucigalpa,Honduras,-87.1715,14.065,[-87.6715 13.565 -86.6715 14.565],0.576,0.273,0.871,0.587,0.519,0.075,0.933,0.528,142.0,485.0
2015-05-28,Tegucigalpa,Honduras,-87.1715,14.065,[-87.6715 13.565 -86.6715 14.565],0.61,0.273,0.828,0.583,0.552,0.103,0.954,0.556,125.0,509.0
2015-05-29,Tegucigalpa,Honduras,-87.1715,14.065,[-87.6715 13.565 -86.6715 14.565],0.61,0.273,0.828,0.583,0.599,0.164,0.977,0.594,125.0,475.0
2015-05-30,Tegucigalpa,Honduras,-87.1715,14.065,[-87.6715 13.565 -86.6715 14.565],0.61,0.273,0.821,0.577,0.628,0.199,0.971,0.62,124.0,510.0
2015-05-31,Tegucigalpa,Honduras,-87.1715,14.065,[-87.6715 13.565 -86.6715 14.565],0.605,0.273,0.828,0.566,0.641,0.236,0.988,0.631,125.0,487.0
2015-06-01,Tegucigalpa,Honduras,-87.1715,14.065,[-87.6715 13.565 -86.6715 14.565],0.605,0.273,0.828,0.566,0.623,0.196,0.975,0.605,125.0,529.0
2015-06-02,Tegucigalpa,Honduras,-87.1715,14.065,[-87.6715 13.565 -86.6715 14.565],0.61,0.286,0.829,0.578,0.611,0.199,0.929,0.592,112.0,519.0
2015-06-03,Tegucigalpa,Honduras,-87.1715,14.065,[-87.6715 13.565 -86.6715 14.565],0.61,0.273,0.821,0.576,0.616,0.215,0.928,0.582,93.0,512.0
2015-06-04,Tegucigalpa,Honduras,-87.1715,14.065,[-87.6715 13.565 -86.6715 14.565],0.628,0.303,0.866,0.649,0.65,0.239,1.041,0.681,75.0,528.0
2015-06-05,Tegucigalpa,Honduras,-87.1715,14.065,[-87.6715 13.565 -86.6715 14.565],0.61,0.303,0.866,0.645,0.652,0.269,1.06,0.699,87.0,498.0
2015-06-06,Tegucigalpa,Honduras,-87.1715,14.065,[-87.6715 13.565 -86.6715 14.565],0.631,0.296,1.029,0.705,0.661,0.277,1.13,0.731,74.0,522.0
2015-06-07,Tegucigalpa,Honduras,-87.1715,14.065,[-87.6715 13.565 -86.6715 14.565],0.552,0.319,1.029,0.669,0.676,0.323,1.153,0.765,44.0,499.0
2015-06-08,Tegucigalpa,Honduras,-87.1715,14.065,[-87.6715 13.565 -86.6715 14.565],0.552,0.296,1.029,0.644,0.681,0.327,1.141,0.759,55.0,526.0
2015-06-09,Tegucigalpa,Honduras,-87.1715,14.065,[-87.6715 13.565 -86.6715 14.565],0.552,0.319,0.959,0.6,0.695,0.322,1.116,0.754,55.0,513.0
2015-06-10,Tegucigalpa,Honduras,-87.1715,14.065,[-87.6715 13.565 -86.6715 14.565],0.552,0.296,0.959,0.608,0.688,0.324,1.166,0.779,70.0,516.0
2015-06-11,Tegucigalpa,Honduras,-87.1715,14.065,[-87.6715 13.565 -86.6715 14.565],0.552,0.253,1.034,0.647,0.678,0.321,1.191,0.787,87.0,522.0
2015-06-12,Tegucigalpa,Honduras,-87.1715,14.065,[-87.6715 13.565 -86.6715 14.565],0.582,0.253,1.061,0.651,0.683,0.321,1.194,0.785,91.0,502.0
2015-06-13,Tegucigalpa,Honduras,-87.1715,14.065,[-87.6715 13.565 -86.6715 14.565],0.582,0.253,1.061,0.651,0.698,0.34,1.192,0.79,91.0,527.0
2015-06-14,Tegucigalpa,Honduras,-87.1715,14.065,[-87.6715 13.565 -86.6715 14.565],0.582,0.238,1.029,0.645,0.712,0.299,1.192,0.776,100.0,491.0
2015-06-15,Tegucigalpa,Honduras,-87.1715,14.065,[-87.6715 13.565 -86.6715 14.565],0.582,0.253,1.061,0.661,0.641,0.272,1.159,0.739,98.0,523.0